CAPE
2569 2785 2690 2759 2781 2928 2918 2894 3004 2829 2683 2672 2784 2818 2737 2701 2797 2528 2573 2734 2761 3082 3188 2872 2814 3079 2773 2642 2281 2304 2746 2642 2554 2848 3159 3213 2998 2926 2620 2816 2647 2670 3030 3227 2796 2969 3518 3686 3669 3614 3472 3501 3300 3026 2878 3010 3371 3302 3085 3065 2909 2765 2488 2240 2019 1964 2132 1956 1806 1791 1749 1632 1244 1444 1822 2006 1912 2151 2020 2132 2039 1909 1898 1859 1731
2511 2755 2704 2638 2658 2878 2965 2904 2933 2836 2640 2625 2682 2785 2811 2881 2898 2814 2598 2926 2946 2993 3249 3098 2922 3092 2935 2821 2884 2792 3125 3587 2829 2727 2970 3173 3264 2841 2872 3103 3001 2861 2952 3222 3379 3182 3388 3898 3809 3664 3562 3684 3297 3160 2867 2727 2710 3042 3283 3208 3158 3055 2927 2716 2648 2430 2323 2382 2191 2104 1996 2190 2334 2408 2060 2010 2094 1811 1792 2323 2576 2424 2217 1948 1714
2418 2759 2752 2752 2795 2805 2786 2917 2944 2822 2680 2492 2555 2643 2848 2948 2814 2837 2578 2745 3030 2938 2996 2996 3147 3316 3156 3011 3297 3314 3451 3596 3355 2885 2895 3311 3510 2898 2646 3130 3223 3159 3214 3420 3460 3508 3563 3806 3731 3554 3142 3341 3723 3494 2770 2815 2689 2685 2904 3146 3354 3229 3173 3272 3184 3016 2865 2945 2867 2620 2307 2296 2291 2336 2515 2453 2517 2570 2453 2145 1688 1700 1978 2211 2186
2336 2708 2819 2806 2775 2939 2932 2800 2745 2732 2608 2541 2522 2615 2595 2686 2815 2833 2733 2532 2850 3006 2808 2880 3227 3513 3630 3397 3452 3660 3630 3629 3561 3409 3391 3340 3442 3532 3197 3236 3347 3424 3362 3444 3427 3405 3578 3926 3716 3150 3066 3338 3782 3765 3249 2934 3030 3205 3174 3151 3310 3398 3298 3391 3622 3416 3177 2721 2934 2832 2629 2596 2764 2702 2739 2724 2600 2460 2308 2241 2143 2062 1926 1759 1720
2295 2592 2793 2775 2709 2813 2870 2754 2735 2787 2638 2407 2445 2480 2314 2372 2735 2781 2724 2528 2547 2883 2952 2954 3196 3538 3710 3696 3667 3781 3823 3827 3730 3417 3268 3428 3588 3330 3333 3436 3565 3590 3500 3526 3397 3448 3578 3707 3632 3599 3630 3683 3868 3934 3617 3830 3761 3437 3477 3570 3640 3698 3773 3665 3660 3794 3612 3388 3261 3326 3377 3364 3318 3277 3254 2949 2656 2584 2600 2639 2634 2552 2387 2088 1899
2265 2519 2719 2738 2749 2758 3008 2756 2739 2830 2703 2435 2342 2341 2256 2202 2462 2795 2761 2608 2494 2577 3054 3083 3092 3487 3783 3808 3743 3846 3811 3808 3880 3726 3052 3077 3413 3369 3200 3427 3502 3774 3809 3582 3511 3694 3608 3767 3746 3529 3639 3952 3962 3801 4106 4192 4208 4184 3945 3725 3782 3819 3863 3775 3654 3346 3200 3377 3606 3646 3647 3610 3538 3474 3400 3126 3090 2984 2798 2688 2650 2573 2772 2816 2447
2394 2502 2763 2688 2744 2814 2850 2720 2838 2684 2771 2512 2367 2376 2302 2156 2194 2553 2742 2652 2549 2454 2809 3231 3272 3358 3784 3813 3594 3796 3908 3770 3930 4008 3564 3015 3088 3499 3038 3028 3300 3493 3734 3534 3194 3247 3669 3814 3802 3801 3904 3988 4004 3854 4017 4300 4377 4289 4130 4264 4035 3711 3425 3431 3377 3134 3035 2999 2969 3041 3244 3337 3268 3233 3156 2822 2670 2729 2756 2639 2717 2720 2671 2522 2721
2474 2630 2866 2800 2878 2883 2784 3042 2891 2870 2874 2934 2758 2558 2510 2315 2394 2573 2870 2788 2606 2558 2631 3090 3348 3322 3622 3699 3655 3558 3778 3892 4020 4136 3980 3326 3030 3311 3556 3146 2915 3230 3439 3519 3310 2830 3027 3376 3212 3528 3874 4097 4199 4046 3912 3931 4430 4494 4138 4216 4184 3828 3419 3351 3526 3262 3002 2935 2708 2746 2790 2867 2868 2819 2836 2798 2658 2754 2740 2864 2940 3095 3091 3077 2796
2468 2562 2815 2981 3033 3062 3070 3092 3157 3052 3008 3197 3012 2831 2780 2750 2714 2765 2976 2933 2690 2578 2618 2770 3193 3342 3323 3562 3550 3358 3382 3644 3752 3915 3961 3738 3366 3116 3292 3614 3321 3008 3238 3318 3420 3386 2985 2578 2709 2866 3219 3974 4224 4303 4038 4132 4266 4278 4560 4463 4290 3901 3698 3503 3344 3304 3155 2797 2636 2556 2424 2556 2716 2782 2726 2843 2893 3006 3218 3154 3174 3246 3163 3070 2764
2524 2626 2859 2990 3055 3115 3258 3257 3283 3387 3245 3339 3384 3170 3062 3097 3002 3035 3098 3072 3026 2852 2798 2756 2865 3236 3358 3446 3413 3343 3264 3290 3367 3021 3272 3716 3584 3063 3092 3350 3514 3232 3362 3463 3189 3136 3356 3226 2587 3014 3350 3903 3986 3645 3542 3351 3278 3113 3365 4008 4292 4078 3677 3450 3263 3099 2911 2725 2649 2350 2408 2576 2584 2650 2600 2624 2934 3101 2951 3290 3231 3088 2670 2585 2818
2598 2700 2917 3004 3100 3335 3364 3363 3491 3507 3508 3545 3579 3500 3420 3309 3283 3345 3350 3340 3308 3289 3141 2899 2755 2960 3198 3298 3365 3215 3108 2990 2746 2740 2705 2858 3324 3654 3318 3432 3710 3896 3633 3644 3763 3296 3037 3181 3296 3564 4098 3294 3530 3034 3125 2948 2855 2722 2474 2484 2982 3617 3736 3501 3222 3050 3154 2934 2706 2740 2898 2980 3038 3109 3004 2836 2518 2810 3081 3295 3282 3177 2981 2635 2470
2694 2866 2948 3141 3325 3496 3557 3649 3690 3750 3694 3719 3722 3674 3522 3542 3545 3582 3498 3492 3583 3422 3256 3215 3176 2877 2938 3121 3151 3100 3111 2760 2568 2508 2428 2400 2533 3194 3317 3465 3357 3556 3802 3714 3664 3476 3267 2893 2916 3218 3612 4084 4154 4292 3222 2814 2566 2431 2373 2328 2220 2180 2364 3168 3386 3397 3228 2969 2996 3049 3204 3164 3317 3448 3298 2779 3478 3402 3514 3540 3442 2929 3020 2660 2602
2728 3064 2968 3214 3548 3712 3684 3724 3838 3889 3906 3900 3894 3781 3726 3740 3645 3640 3516 3572 3587 3602 3619 3457 3415 3213 2978 3094 2987 2984 3125 2651 2477 2365 2221 2111 2002 2135 2464 2911 3032 3154 3414 3671 3716 3834 3618 3503 3376 3146 3552 4242 3848 3787 4198 4362 3608 3190 2892 2648 2415 2198 2142 2151 2183 2503 3069 3227 3260 3216 3120 2953 3445 3606 3578 3686 4166 3816 3820 3496 3184 3099 2848 2820 2495
2924 3108 3135 3401 3849 4026 3923 3918 3964 4038 4017 3984 3976 3900 3827 3846 3657 3538 3505 3585 3658 3666 3536 3498 3529 3571 3330 3179 3216 3136 3107 2574 2495 2322 2141 1982 1871 1800 2388 2408 2642 2826 3210 3476 3712 3908 4052 4135 3966 4013 3816 3752 3982 3825 3990 4161 4267 4123 3534 3421 3292 3128 3091 3081 2845 2494 2210 2563 3230 3412 3445 3766 3884 4072 4283 4230 3981 3872 3886 3561 3470 3390 3336 2910 2841
3088 3226 3292 3602 4023 4100 4021 4081 4058 4098 4083 3962 3983 4002 3871 3872 3716 3535 3347 3417 3620 3636 3679 3624 3597 3623 3520 3314 3243 3094 3062 2499 2446 2341 2160 1986 1818 1685 2262 2330 2552 2831 3070 3442 3782 3953 3994 4237 4305 4132 4174 4297 4136 4159 4398 4507 4614 4539 4227 3763 3820 3760 3906 3449 3214 3004 2812 2628 2384 2919 3357 3675 4040 3942 3962 4035 4248 4215 3910 3797 3363 3117 2751 2513 2492
3083 3335 3409 3660 4018 3972 3956 3974 4043 4075 4053 4028 4003 3968 3980 3896 3855 3560 3350 3267 3374 3500 3579 3477 3556 3618 3480 3413 3190 3199 2978 2388 2394 2316 2204 2047 1832 1678 2154 2501 2646 2773 3021 3262 3616 3935 4028 4141 4291 4233 4399 4334 4089 3568 3516 3882 3913 3994 4022 3970 4000 3841 3535 3361 2923 2760 2761 3025 2865 2963 3114 2911 2824 3488 3068 2792 3088 3510 3120 2612 2605 2609 2658 2633 2545
3262 3494 3439 3540 3752 3898 3886 3874 3989 4043 4054 3983 3902 3856 3852 3925 3803 3641 3402 3197 3192 3275 3440 3392 3478 3460 3472 3582 3451 3266 3248 2788 2349 2233 2159 2067 1922 1878 2288 2506 2776 2902 3129 3212 3542 3758 3880 4184 4303 4183 4179 4390 4068 3632 3305 3078 3742 3626 3758 3755 3708 3663 3578 3450 3339 2976 2990 2944 2921 3020 3073 3003 2870 2758 2663 2650 2672 2604 2569 2556 2616 2619 2675 2629 2554
3319 3571 3448 3513 3678 3820 3828 3804 3892 3883 3990 3945 3884 3826 3747 3785 3732 3674 3487 3283 2987 3050 3256 3392 3388 3386 3354 3469 3372 3492 3339 3069 2574 2285 2094 1977 1905 2258 2619 2704 2966 2988 3205 3436 3522 3616 3806 3721 4114 4306 4407 4438 3796 3407 3319 3159 3812 3831 3925 3858 3746 3784 3782 3371 3222 3440 2851 2981 3027 3194 3297 3224 3009 2775 2639 2562 2546 2566 2484 2423 2472 2560 2662 2751 2630
3277 3558 3527 3448 3711 3889 3768 3833 3841 3838 3968 3908 3764 3751 3674 3763 3686 3578 3455 3319 3048 3070 3088 3204 3366 3318 3203 3237 3065 3184 3386 3116 2726 2510 2183 1982 1848 2457 2713 2900 3029 3142 3189 3461 3565 3713 3934 3778 3351 3383 3726 3976 3579 3399 3217 3230 3772 3822 3896 3967 3797 3812 3663 3478 3374 3527 3397 3496 3504 3424 3340 3270 3050 2780 2620 2494 2346 2324 2378 2450 2573 2588 2608 2500 2331
3266 3556 3428 3524 3805 3866 3745 3856 3791 3857 3996 3890 3842 3798 3686 3618 3672 3613 3452 3284 3224 3033 3052 3115 3281 3347 3294 3248 3224 3084 3145 3648 2844 2617 2414 2191 1961 2284 2848 2949 3133 3241 3444 3427 3649 3803 3844 4035 4053 3174 2928 2853 2852 2866 2970 2954 3353 3592 3619 3625 3653 3555 3342 3335 3618 4399 4547 4340 4172 3482 3286 3190 3126 2974 2554 2380 2419 2522 2521 2512 2401 2215 2241 2284 2152
3428 3700 3695 3408 3485 3717 3646 3781 3862 3961 3943 3928 3768 3588 3591 3552 3534 3592 3515 3321 3356 3367 3207 3134 3118 3321 3270 3360 3366 3315 3252 3372 3606 2886 2675 2437 2203 2114 2651 2984 3140 3380 3507 3502 3524 3587 3772 3900 4116 3567 3250 2888 2572 2390 2267 2272 2349 3177 3390 3532 3620 4215 3877 3915 3758 3602 3948 3852 3279 3216 3210 2942 2642 2096 2276 2515 2492 2361 2182 2000 1788 2192 2135 2018 1858
3349 3527 3614 3431 3436 3557 3607 3716 3841 3888 3912 3940 3873 3720 3660 3636 3616 3740 3498 3484 3544 3568 3523 3323 3242 3318 3367 3437 3580 3596 3432 3121 3744 3002 2747 2570 2409 2368 2382 2700 3028 3299 3514 3656 3604 3756 3744 3698 3995 3760 3280 3018 2771 2490 2253 2065 1994 1906 2759 2602 2626 2603 2814 3252 3456 3192 3060 3170 3214 3316 3044 2476 2040 2228 2307 2298 2227 2112 1828 1688 1874 2528 2476 2224 1945
3535 3707 3745 3436 3530 3650 3769 3805 3791 3847 3928 3944 4010 3894 3811 3725 3701 3743 3800 3638 3673 3697 3862 3790 3668 3612 3700 3758 3701 3819 3866 3881 2920 3029 2942 2771 2626 2646 2593 2542 2476 3009 3322 3478 3317 3351 3442 3457 3511 3082 3011 3003 2791 2490 2224 2084 2008 1929 2100 2322 2496 2714 2911 3042 3090 3158 3229 3266 3288 3178 2683 2251 2120 2219 2177 1994 1710 1584 1444 1371 1100 1414 1458 1434 1587
3902 3894 3779 3594 3589 3726 3829 3848 4030 3899 3916 3915 3946 3956 3864 3763 3823 3888 3927 3866 3832 3792 3614 3723 3666 3590 3635 3536 3589 3706 3682 4044 3521 3170 2860 2816 2860 2877 2875 2818 2764 2742 2708 3204 2996 2568 3454 3606 4230 3025 3026 2811 2592 2328 2160 1974 2086 2265 2435 2640 2849 2980 3091 3202 3298 3348 3347 3290 3159 2765 2349 2185 2202 2103 1840 1416 1269 1308 1313 1248 574 668 949 1022 1088
4023 4066 3907 3704 3866 3978 4122 4077 4097 3920 3927 3922 3916 3982 3962 3956 3954 4022 4162 3993 3896 3888 3964 3754 3712 3720 3674 3615 3913 3767 3874 4191 4400 3855 3511 3234 3080 3111 3115 3087 3063 3013 2940 2844 2998 3124 3175 2722 2831 2768 2915 2770 2473 2201 2080 2199 2342 2515 2706 2895 3055 3138 3192 3328 3406 3400 3336 3229 3142 2805 2366 2132 1968 1699 1456 1280 1363 1452 1292 888 933 884 832 906 975
4456 4388 4267 4043 4164 4186 4287 4148 4234 4110 4065 3993 4198 4282 4160 4097 4088 4384 4126 3889 3928 3773 3956 3763 3768 3851 3988 4097 3957 4106 3852 4337 4490 4358 3934 3779 3450 3231 3232 3216 3197 3136 3059 2951 2849 2670 2560 2502 2366 2366 2450 2379 2187 2347 2456 2422 2597 2777 2961 3082 3148 3195 3227 3245 3349 3243 3092 2984 2813 2440 1978 1502 1338 1316 1360 1448 1278 928 746 583 434 326 274 210 133
4729 4688 4618 4434 4460 4259 4256 4245 4298 4276 4168 4084 4222 4420 4374 4380 4313 4474 4359 4175 4129 4195 4066 3884 3823 3516 4040 3896 4060 3870 4170 4302 4300 4568 4112 3980 3794 3464 3413 3377 3274 3164 3107 2990 2878 2728 2566 2452 2357 2331 2352 2368 2900 2716 2582 2672 2796 2976 3099 3129 3076 3064 3196 3260 3285 2858 2238 2020 1912 1496 1740 1760 1710 1614 1294 744 726 519 214 98 66 33 15 26 29
4723 4685 4579 4349 4477 4528 4577 4316 4302 4342 4387 4160 4251 4411 4442 4423 4526 4758 4705 4440 4532 4341 4158 3802 3801 3981 3721 3776 4065 4450 4500 4120 4217 4198 4029 4050 3857 3506 3465 3399 3336 3198 3118 3063 2954 2847 2709 2618 2575 2574 2654 2692 2743 2798 2826 2916 3026 3103 3150 3154 3154 3114 3120 3044 2852 2402 1929 1943 2118 2218 2026 1763 1531 1181 798 280 56 100 25 19 0 10 3 0 5
4548 4638 4656 4630 4745 4713 4682 4472 4385 4545 4518 4645 4084 4515 4256 5528 4762 4762 4835 4550 4240 4585 4340 3956 4077 4345 4175 4142 4512 4528 4204 4700 4598 4134 5003 4182 6208 4053 3581 3400 3361 3274 3186 3103 3033 2946 2906 2838 2826 2876 2923 2962 2992 3037 3062 3097 3108 3139 3132 3120 3102 3182 3079 2650 1864 1522 1486 1396 1494 1810 1686 1689 1381 742 44 20 37 10 4 0 0 0 0 0 0
4606 4805 4594 4390 4368 4686 4466 4235 4152 4276 4634 4470 3918 3959 4044 4123 4092 4195 4352 4264 4533 4298 3846 5016 4123 4381 3984 3824 4252 4368 4444 4056 3982 3930 3925 3903 3689 3442 3536 3534 3374 3304 3253 3181 3122 3083 3044 3014 3046 3109 3121 3115 3198 3201 3194 3162 3168 3190 3250 3333 3288 2865 2714 2108 1962 1814 1674 1477 1122 1076 1157 1007 132 0 0 0 0 0 0 0 0 0 0 0 0
4666 4633 4652 4398 4034 4277 4078 3994 4226 4385 4434 4617 4213 3962 3926 4030 4156 4097 4138 4184 4259 4274 4158 3980 3890 3802 5089 4171 3789 3719 3789 3886 3834 3734 3741 3531 3372 3387 3393 3378 3415 3384 3338 3284 3236 3189 3183 3237 3279 3303 3330 3344 3357 3339 3203 3188 3328 3468 3441 3342 3263 2957 2460 2044 1740 1588 1357 1363 1336 1353 1124 373 0 0 0 0 0 0 0 0 0 0 0 0 0
4381 4009 4214 4196 4218 4865 4903 4409 4418 4504 4759 4816 4447 4214 3884 3824 3964 4122 4177 4225 4317 4240 4101 3895 3964 3898 3802 3853 3783 3645 3653 3584 3458 3433 3440 3480 3499 3502 3485 3486 3474 3483 3484 3436 3423 3404 3408 3446 3533 3540 3496 3437 3355 3202 3034 3244 3305 3342 3221 3241 3078 2855 2558 2372 2043 1966 1770 1562 1456 1198 557 0 0 0 0 0 0 0 0 0 0 0 0 0 0
4858 5066 5432 5411 5566 5250 5215 5635 5589 5234 4915 4378 4184 4040 3924 3760 3773 3922 4113 4178 4215 4286 4157 3978 3822 3770 3731 3667 3582 3485 3496 3540 3554 3610 3670 3708 3724 3684 3682 3702 3701 3695 3674 3644 3602 3638 3674 3652 3609 3599 3585 3656 3617 3367 3356 3288 3048 2948 2838 2704 2649 2648 2388 2094 1962 1850 1692 1542 1349 932 462 0 0 0 0 0 0 0 0 0 0 0 0 0 0
5006 5117 5182 5346 5424 5230 5144 5077 4970 4929 4711 4386 4027 3590 3490 3488 3555 3588 3690 3862 3984 3979 3920 3781 3692 3604 3550 3514 3498 3486 3532 3690 3802 3864 4036 4146 4155 4102 4021 3971 3943 3970 3942 3928 3860 3850 3802 3712 3683 3726 3668 3627 3545 3364 3191 2874 2716 2716 2746 2585 2180 1845 1844 1444 1174 1098 1161 1130 970 774 378 0 0 0 0 0 0 0 0 0 0 0 0 0 0
4390 4532 4870 4650 4729 4284 4496 4732 4535 4485 4075 4122 3776 3464 3412 3418 3371 3418 3342 3342 3388 3431 3442 3494 3520 3535 3530 3553 3592 3608 3725 3866 4137 4280 4391 4444 4478 4471 4385 4278 4273 4165 4021 3950 4022 4051 3982 3773 3686 3624 3602 3452 3223 2951 2771 2635 2346 2330 2439 2356 1844 1555 1337 1368 1385 1249 1188 1144 1068 979 316 0 0 0 0 0 0 0 0 0 0 0 0 0 0
4174 4355 4476 4181 4300 4401 3804 3858 3939 4290 4082 4078 3578 3312 2832 2887 3046 3147 3287 3324 3312 3307 3243 3352 3426 3465 3675 3896 4050 4062 4140 4177 4252 4230 4145 4174 4228 4301 4376 4449 4376 4292 4123 3952 3912 3958 3856 3673 3455 3329 3132 2869 2550 2351 2230 2152 1809 1790 1754 1776 1422 1286 1315 1305 1208 1323 1330 1191 866 193 0 0 0 0 0 0 0 0 0 0 0 0 0 0 0
3015 3690 3675 3748 3877 4291 4287 4275 4226 4084 3522 3521 3340 2985 2793 2795 2888 3027 3079 3086 3128 3148 3136 3144 3253 3483 3736 4045 4173 4142 4025 4030 4010 3836 3695 3581 3502 3462 3576 3926 4113 4061 3979 3816 3561 3369 3103 2936 2918 2954 2883 2697 2430 2263 1909 1629 1807 1792 1582 1460 1490 1291 1035 844 589 246 103 0 0 0 0 0 0 0 0 0 0 0 0 0 0 0 0 0 0
2814 3079 3640 3857 3905 3871 3758 3774 3486 3335 3292 3328 3097 2906 2892 2821 2862 2960 3000 3018 3005 3040 3024 3065 3214 3412 3734 3808 3641 3695 3806 3831 3597 3357 3266 3212 3249 3214 3254 3270 3377 3576 3598 3569 3466 3040 2703 2632 2582 2609 2497 2393 2299 2221 2056 1814 1142 1089 1290 1259 1429 1250 932 353 0 2 0 0 0 0 0 0 0 0 0 0 0 0 0 0 0 0 0 0 0
2901 3228 3508 3909 4156 4345 4334 3968 3631 3471 3382 3256 3129 3033 3008 3077 3168 3196 3170 3113 3156 3185 3188 3218 3257 3325 3356 3272 3199 3326 3291 3200 2845 2885 2794 2786 2898 2991 3186 3224 3019 2450 2646 2854 3030 3124 2979 2593 2355 2066 2166 2156 1970 1902 1585 1438 1328 1274 1258 1266 1223 1058 734 130 0 0 0 0 0 0 0 0 0 0 0 0 0 0 0 0 0 0 0 0 0
2554 2979 3401 3776 4052 4356 4474 4336 4010 3786 3713 3616 3494 3494 3516 3506 3439 3332 3331 3322 3347 3344 3341 3285 3286 3212 3271 3219 3238 3183 3046 2797 2887 2646 2433 2289 2473 2732 2865 2723 2426 2341 2240 2127 2270 2394 2431 2323 1992 1670 1431 1344 1284 1290 1188 1218 1107 1071 808 440 197 0 0 0 0 0 0 0 0 0 0 0 0 0 0 0 0 0 0 0 0 0 0 0 0
2332 2588 2964 3358 3779 3985 4230 4339 4144 4056 4024 3926 3782 3728 3723 3634 3570 3516 3502 3548 3518 3376 3302 3270 3136 3126 3017 3013 3148 3084 2998 2807 2597 2475 2252 2251 2529 2586 2230 2093 1769 1867 1742 1653 1498 1416 1394 1420 1452 1491 1538 1507 1466 1351 1205 995 675 228 0 0 0 0 0 0 0 0 2 0 0 0 0 0 0 0 0 0 0 0 0 0 0 0 0 0 0
1698 2108 2239 2490 3288 3300 3144 4027 4261 4223 4111 3975 3860 3768 3813 3749 3735 3695 3667 3611 3512 3397 3329 3170 3026 2916 2768 2758 2800 2665 2443 2350 2434 2254 2196 2049 2008 1970 1966 1992 1856 1823 1851 1783 1689 1668 1583 1532 1492 1402 1325 1188 1050 786 378 0 0 0 0 0 0 0 0 0 0 0 2 0 1 2 5 4 0 0 0 0 0 0 0 0 2 0 2 0 1
1265 1641 1961 1929 2175 3060 3321 3467 3799 4242 4334 4206 4140 3944 3918 3946 3877 3811 3788 3728 3560 3416 3303 3138 2840 2608 2549 2498 2534 2551 2400 2224 2389 2260 2179 1933 2024 2066 2054 2052 1966 1874 1592 1473 1376 1316 1258 1201 1177 1162 1115 998 734 460 272 0 0 0 0 0 0 0 0 0 0 0 0 0 0 0 0 1 0 3 2 1 2 1 0 6 4 4 5 6 7
439 763 1258 1693 2344 1976 2687 3387 3794 3880 3988 3912 3900 3924 3900 3986 3956 3817 3660 3419 3218 3158 3231 3168 2827 2345 2277 2271 2288 2182 2169 1884 1612 1526 1697 1792 1778 1882 1803 1671 1531 1522 1379 1368 1229 1028 898 860 855 793 571 312 63 0 3 2 0 0 0 0 0 0 0 0 0 0 0 0 0 0 0 0 0 0 0 1 6 6 5 6 6 6 7 3 5
506 428 749 1318 1736 1992 2001 2532 3212 3256 3140 3242 3324 2941 2869 2682 3258 3481 3224 3011 2914 2925 2945 2845 2430 2301 2365 2065 1908 1733 1650 1580 1477 1361 1471 1507 1540 1219 1005 1086 998 965 1160 1148 924 733 656 490 99 0 0 0 0 0 0 0 0 0 0 0 0 0 0 0 0 0 0 0 0 0 0 0 0 0 0 0 0 6 4 8 9 8 6 9 7
534 500 395 781 1187 1705 2174 1908 2097 1831 2325 2758 2610 2628 2909 2986 2965 2654 2595 2731 2848 2812 2583 2452 2240 2162 2003 1808 1574 1456 1384 1239 1258 1158 1079 933 826 758 664 560 444 228 192 0 0 0 0 0 0 0 0 0 0 0 0 0 0 0 0 0 0 0 0 0 0 0 0 0 0 0 0 0 0 0 0 0 0 0 0 4 12 9 20 19 12
394 202 76 392 940 1310 1532 1576 1656 1742 1105 1462 2101 1927 1717 1901 2080 2181 2070 1917 2003 2414 2376 2116 2004 1944 1642 1499 1400 1302 1172 1062 1019 962 944 846 729 554 324 0 0 0 0 0 0 0 0 0 0 0 0 0 0 0 0 0 0 0 0 0 0 0 2 0 2 0 0 0 0 0 0 0 0 0 0 0 1 0 6 6 0 9 1 0 8
30 8 43 252 449 854 1160 1288 1348 1380 1384 1302 1266 1524 2016 1986 1742 2133 2235 2206 2006 1736 1872 1944 1873 1739 1665 1487 1406 1380 1242 1063 1063 946 720 427 0 0 0 0 0 0 0 0 0 0 0 0 0 0 0 0 0 0 0 0 0 0 0 0 0 0 0 0 0 0 0 0 0 2 4 5 2 0 0 0 1 4 6 6 3 2 2 2 11
222 317 232 362 1 515 849 956 1157 1223 1147 1174 1323 1213 925 1132 1419 1620 1218 1111 1142 1403 1664 1527 1409 1344 1296 1269 1200 961 729 530 321 15 0 0 0 0 0 0 0 0 0 0 0 0 0 0 0 0 0 0 0 0 0 0 0 0 0 0 0 0 0 0 0 0 0 0 0 2 6 8 10 8 4 2 3 7 9 6 3 4 3 1 11
245 87 240 370 372 56 654 896 942 966 855 852 915 1008 940 840 884 882 725 721 759 710 1020 1174 1203 1162 1062 795 570 268 52 0 0 0 1 1 0 0 0 0 0 0 0 0 0 0 0 0 0 0 0 0 0 0 0 0 0 0 0 0 0 0 0 0 0 0 0 0 0 1 3 5 6 6 6 5 5 4 6 6 4 0 4 16 13
202 202 230 290 395 378 330 673 792 855 792 670 597 669 710 710 590 662 644 736 688 480 359 316 52 37 14 8 6 5 3 1 1 2 0 0 0 0 0 0 0 0 0 0 0 0 0 0 0 0 0 0 0 0 0 0 0 0 0 0 0 0 0 0 0 0 0 0 0 0 2 5 8 7 7 6 5 2 0 0 0 1 1 1 6
Wind_Speed
18 20 22 22 22 19 16 15 14 16 15 13 13 13 12 11 10 10 9 10 10 10 12 13 14 14 13 11 9 7 5 4 3 3 3 2 1 1 3 5 4 4 5 3 3 4 4 4 4 4 4 4 2 1 4 5 5 4 3 2 1 1 3 3 6 8 6 5 6 6 6 8 9 11 12 12 12 14 18 16 16 16 17 18 19
17 20 22 22 20 20 18 18 18 18 15 14 13 13 12 12 12 11 9 10 11 11 12 13 13 12 12 10 8 6 3 1 2 1 1 1 2 3 4 5 5 5 5 5 5 3 5 5 5 4 4 5 3 1 2 4 4 3 2 1 1 2 3 4 5 6 8 5 6 6 7 8 10 10 11 11 10 9 11 13 15 17 18 18 19
17 21 22 22 21 22 20 19 19 17 15 14 12 12 13 13 13 11 10 12 12 12 13 13 13 12 11 10 7 5 3 1 0 0 1 2 2 3 5 7 7 7 8 7 6 5 5 6 6 5 5 5 5 2 0 3 4 3 2 1 1 2 2 4 4 5 7 6 5 6 6 7 9 8 10 10 10 12 13 15 16 17 19 20 19
18 20 21 21 22 23 22 20 18 18 16 16 13 13 14 15 14 12 12 13 13 13 13 14 14 13 11 10 8 6 5 3 2 2 2 3 4 5 6 8 8 8 8 8 7 6 6 6 5 5 6 5 4 3 1 1 2 2 3 3 3 4 3 3 4 4 4 6 5 6 6 7 9 10 11 11 13 14 15 16 18 18 19 21 22
18 19 19 21 23 23 22 20 20 19 17 17 14 14 15 16 16 14 13 13 13 15 15 15 14 13 13 11 9 8 6 4 3 3 4 5 6 6 7 8 9 8 8 8 7 6 6 6 5 5 6 5 4 3 1 1 1 2 3 3 3 3 2 3 3 3 4 6 6 6 6 8 9 10 11 11 12 14 16 19 19 20 23 27 25
18 19 20 21 23 22 22 21 20 19 19 18 16 16 16 16 17 17 15 13 14 15 16 16 15 14 14 13 11 9 7 5 5 4 4 5 6 6 8 9 10 10 9 9 8 7 7 7 5 5 6 5 2 1 0 1 2 2 4 4 4 3 3 3 3 3 5 6 6 7 7 8 8 10 10 10 12 14 17 20 21 25 29 29 27
20 20 20 20 21 21 22 21 22 21 22 21 21 20 18 17 17 18 17 16 16 16 16 16 17 16 15 14 12 10 8 6 6 5 5 5 6 7 7 9 10 11 10 10 9 9 8 8 6 6 7 5 3 1 2 2 3 4 4 4 3 3 3 3 3 4 5 6 7 8 8 8 9 9 11 12 14 19 21 23 26 31 31 26 21
20 21 22 21 20 19 20 23 24 24 26 26 24 22 20 20 20 21 21 18 17 16 17 17 18 18 17 15 13 11 9 8 7 7 6 6 7 8 8 9 10 11 11 11 10 9 8 8 7 7 7 5 2 2 3 4 5 5 5 3 2 2 2 3 4 5 5 6 7 7 7 6 8 10 11 15 19 24 28 30 30 28 25 22 21
21 22 23 21 20 20 22 24 26 27 27 28 26 24 23 22 23 23 23 21 21 19 19 19 19 18 17 16 14 11 10 9 9 8 8 8 8 8 9 9 10 10 10 10 10 9 7 6 6 6 7 5 2 3 7 10 8 7 6 4 2 2 3 3 4 5 5 6 7 7 7 7 8 10 13 18 25 29 28 28 27 22 18 18 22
23 22 22 21 22 23 24 25 26 27 28 28 28 27 26 25 24 24 23 22 22 22 22 21 19 19 18 17 15 12 11 11 11 11 10 9 10 9 9 9 9 8 9 8 8 8 8 7 6 5 6 5 4 3 3 6 8 8 8 5 3 2 2 2 3 4 6 6 7 7 7 7 7 9 12 18 24 28 27 26 24 21 19 20 24
24 23 22 24 26 26 26 25 26 27 27 29 29 29 28 27 26 25 24 24 23 24 23 21 20 20 19 18 15 13 12 12 15 15 13 10 9 10 9 9 9 8 8 7 7 7 7 7 5 6 8 6 3 3 2 2 3 3 4 5 4 3 1 3 4 5 5 6 6 7 7 7 8 9 12 17 22 22 20 19 20 20 20 19 19
25 25 26 28 28 28 28 28 27 27 27 28 29 29 30 28 27 26 25 24 25 25 23 22 22 22 21 18 15 13 12 14 19 17 16 14 11 10 10 9 9 8 8 7 7 7 6 6 6 6 5 4 3 4 2 1 1 1 3 4 6 7 6 4 4 5 6 6 7 8 7 8 9 11 13 17 20 19 18 19 20 20 20 21 20
26 27 28 28 29 29 30 29 28 29 27 28 29 30 29 28 26 25 24 25 26 24 24 23 23 23 22 19 16 15 13 18 20 19 17 16 15 11 8 9 9 9 8 8 7 6 6 6 6 6 7 8 6 4 7 7 5 5 6 7 8 9 10 12 11 9 6 6 7 7 9 10 12 14 15 15 13 14 16 20 21 21 22 22 22
27 28 29 28 29 30 31 30 29 29 29 29 29 29 27 26 25 25 25 25 24 24 23 23 24 23 22 20 19 17 14 22 21 20 18 18 16 14 8 8 8 8 8 8 7 6 6 6 6 7 7 7 7 5 6 7 8 8 7 6 6 9 13 15 16 16 13 10 9 9 11 13 14 14 14 16 16 15 15 17 16 19 20 21 20
29 29 29 29 30 31 30 29 29 30 30 30 29 27 26 26 25 25 25 24 24 24 24 24 23 22 21 20 20 18 16 23 23 21 20 19 18 15 9 8 8 8 8 8 7 6 6 6 5 6 7 7 8 8 7 8 9 7 5 4 6 7 12 17 18 17 17 16 15 15 15 14 13 13 15 18 16 11 12 16 15 15 18 19 22
29 29 29 29 29 29 29 28 29 30 30 30 28 26 26 26 26 26 26 25 25 25 25 24 23 22 21 20 19 17 17 24 23 22 22 21 21 15 11 9 8 8 9 9 9 8 7 6 6 6 6 6 8 10 8 8 8 7 5 4 4 6 8 11 16 20 19 20 20 19 19 16 14 14 16 17 14 13 13 16 17 18 18 19 23
30 30 29 28 27 28 27 27 28 28 29 28 26 26 26 26 27 28 26 24 24 24 24 23 23 22 20 20 19 18 17 22 25 24 23 24 23 14 11 10 9 9 9 9 9 8 7 7 7 7 7 7 9 13 13 10 5 5 5 4 5 7 9 12 22 23 21 21 23 25 23 21 18 16 16 18 18 13 14 18 21 21 21 20 21
30 31 29 26 26 27 27 26 27 27 27 26 25 26 26 28 27 27 25 23 22 22 24 24 22 21 20 19 19 18 17 22 26 25 25 27 22 16 13 11 10 10 10 10 9 8 7 8 7 7 8 9 12 17 16 15 6 5 6 5 5 7 11 14 16 23 30 26 24 23 24 23 23 21 22 20 17 20 23 25 24 23 26 27 24
30 31 29 26 27 29 28 26 26 26 25 24 25 26 26 27 27 27 24 23 22 23 23 23 22 22 20 19 21 18 17 22 28 27 26 27 22 16 14 13 12 11 11 11 10 9 8 10 11 8 9 11 14 19 19 17 9 7 7 8 7 7 12 15 18 18 27 29 24 24 26 29 29 29 29 27 22 25 29 30 29 29 30 31 30
29 32 31 28 28 29 28 27 25 24 24 25 26 26 27 27 26 25 23 23 23 21 21 21 20 22 21 20 21 18 18 20 27 27 27 26 24 19 16 15 13 13 12 12 11 10 10 11 15 16 11 10 12 17 20 19 12 9 9 10 9 9 14 17 20 24 23 22 24 26 25 25 26 33 34 29 25 30 33 35 35 35 35 35 34
33 34 30 27 27 28 27 26 25 23 24 25 25 26 26 25 25 24 22 23 22 21 19 20 20 20 20 21 20 19 20 18 26 28 27 26 25 22 18 17 16 15 14 14 12 11 12 13 13 20 19 15 14 14 19 20 16 12 11 11 11 15 23 19 19 20 22 26 28 26 24 26 30 30 29 26 24 30 36 37 38 38 37 35 33
34 32 28 26 26 27 26 26 24 24 24 25 25 24 24 23 23 22 22 22 21 21 21 20 21 21 21 21 21 20 21 20 20 27 27 26 26 25 20 19 19 18 16 15 14 13 13 14 14 22 25 21 18 17 18 20 18 18 14 12 13 16 18 20 21 23 26 31 30 27 25 29 33 32 28 25 25 28 32 35 40 41 40 37 36
33 30 27 25 25 26 26 26 25 24 23 22 22 22 21 20 20 20 20 21 21 21 21 21 21 21 22 22 22 21 20 22 19 25 26 27 27 26 23 19 22 19 15 13 13 13 13 15 16 26 28 25 23 21 22 22 23 19 15 14 16 17 23 23 24 28 32 34 32 30 31 34 34 32 29 30 33 35 34 34 34 36 37 36 37
30 27 25 25 25 25 25 25 24 23 21 21 20 20 19 19 19 20 21 21 21 20 19 20 19 19 19 19 19 18 19 17 22 24 27 26 27 26 24 19 18 17 16 13 13 14 15 16 21 31 30 29 27 26 26 29 25 22 19 17 18 26 26 24 27 33 36 36 35 35 36 36 34 33 33 35 35 35 34 34 35 38 39 39 39
26 24 24 25 25 26 26 25 22 21 20 20 19 18 18 18 18 19 19 18 19 20 20 20 19 18 19 18 18 18 17 19 20 24 26 26 24 24 22 21 17 15 16 13 11 20 32 37 38 35 34 33 33 34 32 28 24 23 23 22 26 29 30 29 31 35 37 37 38 39 38 37 34 33 35 35 35 34 35 35 36 37 37 39 39
24 23 24 24 25 25 25 23 21 21 20 20 19 19 18 18 18 19 17 17 17 18 18 18 18 18 18 17 16 17 18 18 16 19 22 22 20 21 22 21 20 18 15 20 32 29 30 36 37 38 37 37 35 31 30 33 29 28 29 30 32 33 34 34 35 36 37 37 37 36 35 34 34 35 34 34 34 35 35 35 36 37 39 39 39
25 24 24 24 24 23 23 23 23 23 21 21 21 20 20 19 19 19 18 18 19 19 19 18 17 16 16 15 16 15 17 16 16 16 21 20 18 20 20 19 20 21 19 18 19 24 27 26 31 34 37 36 37 40 40 39 36 34 35 34 35 36 37 38 39 38 36 35 34 33 32 33 34 35 35 35 36 37 38 nan nan nan nan nan nan
26 24 24 25 25 24 24 25 25 25 23 23 22 21 20 20 20 19 19 20 20 19 19 18 16 16 15 16 16 17 16 18 17 17 17 20 21 22 23 23 26 25 25 24 23 22 26 33 34 32 33 33 34 32 32 34 35 36 36 36 35 35 38 41 39 37 36 34 33 32 31 32 34 37 38 39 nan 40 nan nan nan nan nan nan nan
28 27 28 29 28 27 26 27 27 27 27 28 38 39 33 27 23 21 21 24 22 20 20 20 20 18 19 18 18 18 21 20 23 30 32 33 27 24 26 26 27 28 27 31 31 29 30 29 26 26 27 28 29 30 32 32 33 33 33 34 34 35 36 35 35 38 39 39 36 35 32 33 35 37 nan nan nan nan nan nan nan nan nan nan nan
31 31 32 32 31 30 28 28 28 29 30 36 38 40 46 48 45 38 35 44 46 47 40 29 28 25 23 33 33 26 26 31 30 38 42 40 42 41 37 37 33 33 37 40 35 34 33 30 28 28 28 29 29 31 32 32 33 34 34 32 32 34 34 33 35 38 38 39 39 38 39 39 41 nan nan nan nan nan nan nan nan nan nan nan nan
34 34 36 36 34 32 30 30 31 31 31 36 36 38 39 47 55 53 48 47 48 48 47 46 45 45 38 36 38 44 43 41 42 43 44 44 41 42 42 43 45 45 46 41 36 34 34 32 32 32 31 31 32 33 34 35 35 35 35 34 34 34 33 36 40 41 41 41 42 43 43 43 nan nan nan nan nan nan nan nan nan nan nan nan nan
34 34 37 37 36 35 33 33 34 34 34 39 40 40 41 42 46 54 54 53 54 52 50 49 48 49 48 43 40 40 43 45 47 47 46 44 43 43 44 45 46 47 45 43 38 36 36 36 36 37 37 38 39 41 41 40 41 40 39 38 35 34 37 40 44 44 44 44 44 45 45 nan nan nan nan nan nan nan nan nan nan nan nan nan nan
34 35 38 40 40 38 34 38 41 39 41 42 42 42 41 41 44 46 52 56 59 58 56 53 51 50 51 51 49 46 44 45 48 48 48 47 48 47 46 48 47 47 47 42 39 41 41 43 45 46 46 48 47 46 44 43 44 44 42 40 37 38 40 46 47 45 44 44 44 45 45 nan nan nan nan nan nan nan nan nan nan nan nan nan nan
34 35 35 38 38 37 35 36 36 39 41 42 44 45 45 45 46 46 46 45 50 55 59 58 54 54 54 52 53 52 50 50 50 51 52 52 53 54 54 50 51 46 42 42 50 52 52 53 50 49 50 50 47 46 45 44 43 43 43 42 42 42 44 47 46 45 45 46 44 46 45 nan nan nan nan nan nan nan nan nan nan nan nan nan nan
39 47 48 40 36 34 34 34 31 32 34 38 42 43 46 50 51 49 46 46 49 51 50 53 54 54 53 53 55 57 57 57 56 55 56 56 57 59 60 56 53 52 53 54 54 54 53 52 52 51 51 50 48 46 46 45 44 43 44 44 44 45 45 45 44 44 43 44 44 46 47 nan nan nan nan nan nan nan nan nan nan nan nan nan nan
47 45 43 41 40 38 34 32 30 30 32 34 34 39 44 49 52 53 55 55 55 54 54 53 53 55 60 60 60 60 60 60 59 58 55 54 51 50 54 54 55 56 56 54 53 51 49 48 47 47 48 47 47 46 47 47 46 45 44 44 43 43 43 43 43 43 43 44 47 49 nan nan nan nan nan nan nan nan nan nan nan nan nan nan nan
52 50 48 47 45 42 40 38 36 35 36 38 40 41 42 47 51 55 59 60 59 57 57 55 57 60 61 57 58 61 63 62 62 62 60 56 51 52 56 57 58 57 54 50 46 45 45 44 44 45 45 45 45 46 46 46 46 46 44 43 43 43 44 44 46 46 47 nan nan nan nan nan nan nan nan nan nan nan nan nan nan nan nan nan nan
57 57 54 51 48 46 40 40 43 45 44 45 44 44 45 46 48 52 56 58 60 61 60 57 56 58 59 58 57 58 61 62 62 61 59 58 56 57 58 57 55 53 50 47 44 43 43 42 43 45 45 45 45 43 43 43 42 42 43 44 44 44 46 48 nan nan nan nan nan nan nan nan nan nan nan nan nan nan nan nan nan nan nan nan nan
60 64 66 60 50 43 39 39 41 43 45 45 46 47 48 49 50 50 51 52 53 56 56 54 52 51 54 55 56 55 57 56 55 56 56 57 57 57 55 52 50 48 47 46 44 43 43 44 43 43 43 43 42 42 42 42 42 44 45 46 47 49 48 48 nan nan nan nan nan nan nan nan nan nan nan nan nan nan nan nan nan nan nan nan nan
65 64 64 60 50 45 40 41 42 44 45 47 49 50 50 51 51 49 48 48 48 48 50 50 50 50 51 51 51 52 56 56 56 55 56 55 54 53 50 48 47 47 47 46 44 43 44 44 44 44 44 42 42 43 44 45 47 47 46 47 49 nan nan nan nan nan nan nan nan nan nan nan nan nan nan nan nan nan nan nan nan nan nan nan nan
64 61 59 56 50 42 43 45 46 47 49 50 52 52 51 50 50 49 48 48 47 48 49 51 52 52 51 55 58 57 57 57 56 54 52 50 49 49 48 47 47 47 46 46 45 45 44 44 45 46 46 47 46 46 47 47 48 48 nan nan nan nan nan nan nan nan nan nan nan nan nan nan nan nan nan nan nan nan nan nan nan nan nan nan nan
62 59 58 55 52 48 46 47 48 50 52 52 52 52 51 50 48 48 48 47 46 47 49 51 51 50 54 62 59 59 55 54 53 51 49 48 48 48 47 47 47 46 46 46 46 46 46 46 46 47 47 48 48 48 48 nan nan nan nan nan nan nan nan nan nan nan nan nan nan nan nan nan nan nan nan nan nan nan nan nan nan nan nan nan nan
63 61 60 59 54 50 49 49 49 50 51 52 52 51 51 52 52 51 49 49 48 48 48 49 49 49 50 53 54 54 52 52 51 50 48 48 48 48 47 47 47 48 48 48 48 48 48 48 48 48 48 49 48 49 50 nan nan nan nan nan nan nan nan nan nan nan nan nan nan nan nan nan nan nan nan nan nan nan nan nan nan nan nan nan nan
65 63 62 60 56 53 53 53 52 52 51 53 53 51 48 49 51 52 52 50 49 48 49 48 47 48 48 48 50 52 52 51 50 50 49 48 48 48 47 48 48 49 49 49 50 50 50 50 50 51 51 52 nan nan nan nan nan nan nan nan nan nan nan nan nan nan nan nan nan nan nan nan nan nan nan nan nan nan nan nan nan nan nan nan nan
67 65 63 61 59 57 55 54 53 53 54 54 53 52 51 50 51 52 53 51 48 47 47 48 48 46 46 47 48 51 52 52 52 52 51 50 50 49 49 49 49 50 51 51 51 51 51 51 nan nan nan nan nan nan nan nan nan nan nan nan nan nan nan nan nan nan nan nan nan nan nan nan nan nan nan nan nan nan nan nan nan nan nan nan nan
72 69 66 65 63 59 58 58 57 57 56 55 53 53 53 53 53 52 53 52 48 45 45 47 50 50 49 49 50 52 53 54 54 54 53 53 52 52 52 52 52 51 51 nan nan nan nan nan nan nan nan nan nan nan nan nan nan nan nan nan nan nan nan nan nan nan nan nan nan nan nan nan nan nan nan nan nan nan nan nan nan nan nan nan nan
75 73 nan 67 65 63 61 61 60 59 58 58 55 53 54 56 57 55 54 54 52 49 46 46 48 49 50 50 52 54 54 55 55 55 56 56 55 55 55 nan nan nan nan nan nan nan nan nan nan nan nan nan nan nan nan nan nan nan nan nan nan nan nan nan nan nan nan nan nan nan nan nan nan nan nan nan nan nan nan nan nan nan nan nan nan
nan nan nan 70 68 67 67 66 65 62 60 60 58 55 53 53 55 56 57 56 56 53 52 50 48 47 48 50 51 52 52 53 54 55 55 55 nan nan nan nan nan nan nan nan nan nan nan nan nan nan nan nan nan nan nan nan nan nan nan nan nan nan nan nan nan nan nan nan nan nan nan nan nan nan nan nan nan nan nan nan nan nan nan nan nan
80 77 73 71 nan 69 69 68 66 64 63 63 64 63 60 56 54 55 57 58 58 57 56 55 53 52 52 52 52 52 52 52 52 nan nan nan nan nan nan nan nan nan nan nan nan nan nan nan nan nan nan nan nan nan nan nan nan nan nan nan nan nan nan nan nan nan nan nan nan nan nan nan nan nan nan nan nan nan nan nan nan nan nan nan nan
81 nan 77 76 75 nan 73 70 68 67 65 64 64 65 65 64 61 57 58 60 61 61 60 60 59 57 56 56 56 55 nan nan nan nan nan nan nan nan nan nan nan nan nan nan nan nan nan nan nan nan nan nan nan nan nan nan nan nan nan nan nan nan nan nan nan nan nan nan nan nan nan nan nan nan nan nan nan nan nan nan nan nan nan nan nan
79 79 79 78 77 77 78 77 74 73 71 68 66 66 66 66 64 62 61 61 62 63 64 64 nan nan nan nan nan nan nan nan nan nan nan nan nan nan nan nan nan nan nan nan nan nan nan nan nan nan nan nan nan nan nan nan nan nan nan nan nan nan nan nan nan nan nan nan nan nan nan nan nan nan nan nan nan nan nan nan nan nan nan nan nan
Wind_Direction
231 225 223 222 225 228 225 218 214 212 210 209 202 201 201 197 199 195 193 184 195 192 183 177 173 169 162 161 153 152 138 112 91 80 74 74 49 330 280 306 319 307 306 319 334 332 339 347 354 2 350 358 358 254 227 238 243 240 251 276 339 11 38 61 85 97 92 80 79 72 68 68 52 29 29 24 18 4 3 8 10 9 8 10 14
232 232 229 228 231 230 228 223 219 217 215 212 207 205 203 205 205 200 191 194 197 196 192 188 183 176 169 167 170 167 164 124 75 50 59 48 8 297 302 309 312 310 302 317 331 326 324 334 343 347 339 352 0 9 219 217 234 239 264 311 59 44 24 51 64 89 97 75 64 57 58 40 43 27 25 23 22 13 15 12 10 13 15 17 17
239 234 233 233 236 234 231 227 226 226 223 215 212 208 207 209 210 204 196 199 201 197 199 193 194 187 179 184 190 195 210 219 244 267 300 341 343 327 308 313 319 317 315 319 329 324 326 325 335 330 316 338 348 0 164 192 196 185 162 173 98 94 62 29 60 80 93 92 75 72 54 42 45 45 32 24 20 17 20 23 21 15 11 11 9
242 241 239 239 241 239 236 231 234 234 229 221 217 211 210 213 215 208 203 198 204 204 200 199 199 197 196 202 212 221 238 248 260 279 306 327 334 329 319 313 314 316 314 317 324 318 321 326 329 325 321 330 338 335 317 176 180 175 136 121 114 111 108 73 43 69 88 100 88 75 70 60 50 43 33 19 16 12 13 16 14 10 8 8 11
243 245 245 246 245 243 243 238 238 239 237 229 226 219 212 214 218 214 210 201 202 209 208 203 203 206 208 218 226 235 246 260 276 286 298 316 329 326 318 312 313 314 312 311 312 311 316 330 333 318 312 326 343 350 334 62 156 149 129 132 129 127 111 85 62 37 62 82 93 82 69 54 39 36 30 21 11 7 8 11 9 1 0 8 11
242 245 244 247 247 251 247 243 243 243 241 237 235 228 220 217 221 219 213 209 207 210 214 210 209 213 217 224 231 239 249 260 277 287 310 322 319 317 310 307 309 311 311 313 314 315 318 330 336 316 311 331 7 348 247 132 156 132 123 137 145 147 126 118 113 92 80 77 78 79 57 44 32 22 21 16 10 3 3 9 5 356 355 2 7
240 245 246 249 248 251 251 248 243 242 241 239 237 234 229 226 224 224 219 214 214 213 217 216 216 220 226 229 233 243 253 264 272 284 299 312 310 308 306 306 307 307 311 316 317 319 324 325 327 320 317 341 36 121 195 172 172 135 131 133 130 122 108 103 86 76 75 73 65 55 48 27 17 19 2 360 6 5 7 7 1 356 2 11 20
246 246 246 246 248 253 251 248 244 241 240 239 239 240 237 232 231 229 225 220 217 217 218 221 220 225 230 234 237 244 256 265 274 278 289 300 300 305 308 308 313 314 316 317 318 320 323 325 328 320 320 337 44 160 188 184 183 154 153 154 150 121 102 95 82 79 77 68 57 55 42 25 6 7 4 2 8 8 8 4 360 2 15 18 16
248 248 249 249 250 250 247 245 243 242 241 242 242 242 242 238 236 235 232 225 219 218 219 222 225 228 234 238 242 246 256 264 262 271 284 297 298 308 317 319 320 318 319 321 318 317 318 315 318 318 312 327 5 189 191 195 186 175 176 180 161 137 110 97 91 83 81 69 61 50 44 23 10 14 15 8 12 14 10 9 11 21 34 24 9
251 252 254 252 250 250 249 245 245 245 244 244 244 245 244 243 242 242 240 234 227 222 221 222 225 231 236 242 244 246 251 252 263 288 287 284 299 300 308 316 319 317 317 316 315 318 321 317 310 316 288 290 290 279 211 180 170 165 179 189 171 140 108 94 75 65 67 60 49 42 34 20 14 16 19 15 14 16 19 15 27 37 41 35 17
261 259 257 254 253 252 251 249 248 249 246 244 245 245 246 245 245 245 244 240 235 231 226 226 227 231 238 242 247 247 250 251 278 289 300 303 294 302 309 311 314 315 317 313 307 309 311 314 304 300 301 297 297 299 247 170 148 136 114 121 149 157 147 73 56 47 42 38 29 18 11 11 12 12 17 22 23 28 24 17 19 23 30 35 36
271 264 258 254 254 256 254 254 252 252 249 248 248 247 246 247 247 248 248 247 241 237 234 231 230 231 235 240 246 248 249 261 281 293 303 313 311 303 304 306 307 312 311 313 307 305 305 301 293 269 266 272 235 257 253 192 232 3 42 37 37 51 53 49 44 32 27 26 18 1 347 354 1 354 5 19 26 33 23 17 16 26 28 27 25
275 268 263 259 258 256 256 257 256 254 253 251 248 246 247 248 249 251 253 249 246 243 239 237 236 235 235 240 243 249 246 268 282 294 304 313 322 323 304 303 309 312 314 319 318 307 292 282 266 254 252 280 269 214 200 229 293 358 8 18 25 17 20 30 30 20 11 10 12 2 345 346 352 346 349 7 11 29 24 21 16 21 21 18 21
273 272 269 265 260 258 258 259 258 257 255 253 250 249 249 250 250 249 248 249 248 246 244 242 239 239 239 240 242 243 244 268 286 295 302 310 317 315 310 311 312 317 320 320 313 312 301 279 260 252 257 265 264 254 229 215 229 269 300 316 328 348 360 11 11 16 10 359 5 3 350 343 345 338 344 358 13 20 20 27 23 24 19 16 12
269 272 273 269 263 260 260 260 259 258 257 256 253 251 250 247 249 248 248 250 250 248 246 245 242 243 244 243 244 246 244 269 286 296 301 305 310 306 308 307 308 314 320 321 320 312 295 279 263 252 256 263 262 266 251 238 243 241 252 291 319 326 333 336 339 335 330 335 347 356 352 342 339 343 345 350 359 0 4 13 25 35 36 19 2
268 269 271 272 269 266 264 261 259 258 258 258 257 255 251 250 250 249 246 245 246 246 245 243 245 246 246 246 246 249 250 274 283 292 298 299 301 292 304 309 313 315 318 321 318 307 298 282 265 260 262 263 273 284 272 250 233 230 236 265 292 312 317 324 321 321 320 321 329 334 332 327 312 321 318 320 329 347 0 3 6 19 21 14 4
268 270 272 274 273 270 266 264 260 259 258 258 259 257 254 253 251 248 248 247 248 248 247 245 243 246 249 249 250 249 249 269 283 289 293 296 289 289 299 299 306 319 319 317 314 313 302 289 278 263 265 268 272 286 295 292 251 226 230 240 274 292 295 296 318 330 334 340 341 337 335 330 325 320 336 353 347 334 346 358 4 1 4 14 10
270 271 272 275 274 271 267 264 259 257 255 257 258 256 255 252 253 252 252 250 246 245 244 242 243 246 251 252 254 253 250 266 283 287 291 296 297 292 291 297 306 311 313 315 311 305 302 301 283 272 265 262 270 289 299 296 279 249 242 243 262 286 293 294 296 311 334 338 333 335 330 317 312 334 349 353 351 330 339 357 0 355 354 354 4
272 272 273 274 272 269 267 262 257 256 255 254 253 255 256 254 253 253 251 248 243 241 241 241 243 246 250 253 258 259 251 262 283 288 293 298 297 288 290 294 302 307 307 307 309 300 290 286 298 292 271 262 267 283 297 300 288 265 257 259 262 272 284 286 293 294 295 302 309 313 313 317 322 328 336 349 351 338 339 349 348 349 351 351 349
272 269 269 270 269 268 266 263 259 257 255 253 251 252 251 252 254 254 251 245 242 239 242 242 247 249 250 253 254 260 256 255 276 292 295 299 308 292 291 294 298 303 299 296 292 292 285 272 283 302 301 285 277 286 296 306 296 274 263 266 263 274 276 286 282 279 285 291 290 299 306 306 309 318 325 327 325 329 338 342 342 344 346 346 344
265 264 265 268 270 270 265 265 264 258 254 253 251 251 251 252 252 251 248 244 240 239 243 244 247 247 248 250 248 254 256 261 272 295 297 303 309 306 292 293 292 288 287 287 285 279 274 272 261 288 301 302 302 304 299 302 296 283 280 273 276 262 259 275 282 285 293 290 289 294 304 303 304 311 316 316 323 332 335 337 337 340 340 341 340
263 264 266 270 271 270 267 263 260 254 252 251 251 251 251 251 250 249 242 238 238 240 242 243 245 245 244 245 245 248 258 270 264 288 298 302 306 315 295 293 287 286 284 278 277 272 269 264 258 276 294 298 302 301 302 299 303 287 284 285 276 267 274 280 285 290 291 288 292 296 298 297 300 304 305 307 316 323 325 327 332 334 334 334 336
263 265 267 270 271 271 265 264 258 250 249 252 252 251 250 250 247 244 240 236 239 243 246 246 245 244 243 243 244 247 250 260 274 273 294 300 306 308 309 295 287 286 282 279 274 268 264 261 260 276 286 292 295 297 294 298 290 290 300 292 288 282 275 284 284 286 288 290 293 298 296 297 301 306 310 312 317 316 315 317 320 322 326 330 334
261 266 269 272 271 267 263 261 256 251 251 249 248 248 248 246 243 240 240 238 241 244 245 247 245 244 244 242 243 245 252 253 271 281 283 302 300 307 310 310 287 285 284 276 269 264 260 261 261 277 285 288 289 289 288 289 289 301 305 303 294 280 281 285 288 288 290 292 297 298 298 301 307 309 308 309 310 309 313 318 321 323 326 329 330
262 267 271 271 267 260 257 254 254 251 249 249 246 244 245 245 241 240 241 242 242 244 246 246 245 242 240 243 245 249 254 259 260 279 292 296 302 305 310 314 314 292 278 279 272 253 253 258 262 268 272 274 276 275 275 286 293 288 296 298 287 284 289 290 291 288 288 291 294 296 300 304 304 304 303 306 307 311 316 318 318 319 322 325 325
259 263 264 264 261 256 253 251 250 247 245 240 239 236 237 238 235 236 236 236 236 238 240 241 243 243 244 246 249 250 254 255 259 267 281 289 294 305 311 316 318 313 305 264 254 256 256 258 262 265 267 270 273 275 277 277 285 279 281 283 284 286 289 288 284 281 282 284 288 293 297 298 298 294 298 303 304 305 306 308 310 313 312 313 314
253 256 258 258 256 251 248 243 241 241 240 237 236 234 233 232 232 232 233 232 232 234 236 239 241 244 245 244 244 244 248 252 256 260 272 275 278 280 284 289 295 288 286 287 285 271 272 269 263 262 263 262 260 263 269 273 276 279 281 282 282 283 288 288 286 283 282 283 286 287 290 291 289 291 292 295 299 299 300 nan nan nan nan nan nan
250 252 255 250 247 245 241 241 240 236 236 236 236 234 233 230 227 229 229 229 229 231 234 235 239 240 237 237 237 241 245 250 256 261 267 271 275 279 286 289 289 294 298 299 299 298 284 277 279 276 276 277 277 277 276 277 279 280 282 283 285 287 290 288 290 290 287 283 280 280 285 292 295 288 283 285 nan 296 nan nan nan nan nan nan nan
243 246 247 245 243 242 238 238 234 231 233 232 225 219 215 219 223 226 226 222 222 229 236 235 239 237 236 238 243 244 247 253 250 243 253 252 260 279 289 291 292 295 302 301 297 299 294 293 296 294 291 293 292 290 288 286 285 285 285 287 288 290 292 290 292 294 292 290 287 288 294 299 300 297 nan nan nan nan nan nan nan nan nan nan nan
239 240 241 239 238 240 238 237 234 232 234 234 232 228 225 223 218 216 223 217 220 221 224 230 230 234 240 236 232 242 249 250 249 256 261 262 262 262 266 278 288 289 294 300 297 296 298 297 299 300 298 296 297 295 293 289 287 286 286 280 285 294 298 298 293 290 293 297 301 303 305 303 304 nan nan nan nan nan nan nan nan nan nan nan nan
234 236 239 239 234 231 232 233 235 234 233 237 234 233 229 223 221 220 222 225 225 228 233 234 232 231 237 248 243 244 253 258 258 260 265 269 272 274 276 277 279 286 291 291 293 294 294 295 294 293 291 290 292 295 293 291 291 290 288 286 285 287 293 295 297 302 304 305 307 306 304 302 nan nan nan nan nan nan nan nan nan nan nan nan nan
231 233 239 243 240 231 230 230 232 235 233 235 235 234 232 231 226 221 223 228 229 229 232 235 237 239 238 249 255 249 249 256 262 264 268 272 275 278 278 279 283 287 293 293 288 289 288 287 287 285 285 282 278 278 284 291 292 290 287 288 290 293 297 300 299 300 301 302 303 303 302 nan nan nan nan nan nan nan nan nan nan nan nan nan nan
233 235 238 244 247 246 241 236 234 237 237 236 235 234 233 233 235 232 228 231 235 233 232 233 240 244 246 244 249 257 261 261 263 265 268 269 271 273 275 279 285 289 286 284 286 288 283 280 279 275 274 278 280 281 284 289 289 289 290 289 287 288 291 291 294 296 297 299 301 301 301 nan nan nan nan nan nan nan nan nan nan nan nan nan nan
231 233 237 243 246 248 246 241 237 236 238 239 238 237 235 235 238 241 241 241 237 235 235 234 237 246 246 253 258 259 261 263 264 265 267 270 272 273 272 271 272 273 277 286 282 281 280 281 281 279 276 277 277 278 279 280 283 286 287 287 285 285 286 289 292 294 296 297 300 297 298 nan nan nan nan nan nan nan nan nan nan nan nan nan nan
232 229 228 237 245 246 245 243 242 243 246 246 244 244 242 240 241 243 244 246 245 243 242 240 235 236 248 249 252 255 257 258 260 264 268 271 274 277 278 280 281 278 276 280 283 284 283 281 280 279 278 277 279 281 282 284 285 286 287 287 287 287 289 291 293 294 296 297 296 295 295 nan nan nan nan nan nan nan nan nan nan nan nan nan nan
230 232 236 239 243 243 243 244 248 249 250 251 251 251 251 250 248 246 244 245 248 248 246 245 244 242 246 249 252 255 258 260 262 265 267 270 273 276 279 281 283 283 284 284 284 283 282 282 280 278 278 278 280 281 282 284 285 287 288 289 290 291 292 293 293 292 293 293 293 292 nan nan nan nan nan nan nan nan nan nan nan nan nan nan nan
227 232 233 234 238 238 237 241 245 247 251 254 256 259 259 257 255 251 249 249 251 252 254 257 255 249 245 246 252 255 258 260 261 261 261 263 268 276 279 282 282 282 281 281 279 278 279 279 278 276 276 278 278 279 282 285 287 288 287 287 288 290 291 290 289 291 292 nan nan nan nan nan nan nan nan nan nan nan nan nan nan nan nan nan nan
228 226 228 230 232 231 235 238 243 246 250 254 258 260 259 259 257 255 254 253 254 256 260 264 262 257 253 253 256 257 260 263 266 266 266 266 268 272 275 277 278 278 279 279 278 278 278 280 279 279 279 280 281 280 281 284 286 285 284 284 285 282 281 284 nan nan nan nan nan nan nan nan nan nan nan nan nan nan nan nan nan nan nan nan nan
229 228 226 222 226 232 236 241 245 251 252 255 258 259 260 259 257 257 257 256 256 257 260 262 264 261 258 260 261 262 264 264 266 267 268 268 269 271 272 273 274 275 277 279 277 274 274 274 273 273 276 280 281 280 280 279 281 281 283 285 286 287 290 291 nan nan nan nan nan nan nan nan nan nan nan nan nan nan nan nan nan nan nan nan nan
230 231 229 224 226 227 233 239 248 252 254 255 256 257 257 257 257 258 259 260 261 260 260 260 261 261 261 261 262 261 261 263 265 266 267 267 268 268 268 268 268 271 274 275 274 273 272 271 270 271 270 270 273 278 279 280 280 282 283 284 286 nan nan nan nan nan nan nan nan nan nan nan nan nan nan nan nan nan nan nan nan nan nan nan nan
230 232 234 227 217 225 235 241 246 251 253 254 254 255 253 252 254 255 258 260 260 260 259 257 255 252 251 252 254 259 263 264 264 263 263 264 264 264 265 266 268 270 271 272 271 271 270 269 269 269 268 269 270 270 274 276 277 279 nan nan nan nan nan nan nan nan nan nan nan nan nan nan nan nan nan nan nan nan nan nan nan nan nan nan nan
229 232 235 232 224 224 232 238 241 246 250 250 253 255 254 252 254 258 259 258 257 256 256 254 254 254 252 254 255 257 260 260 260 261 261 261 261 262 263 264 265 266 268 269 270 271 271 269 268 268 268 268 269 271 272 nan nan nan nan nan nan nan nan nan nan nan nan nan nan nan nan nan nan nan nan nan nan nan nan nan nan nan nan nan nan
227 229 235 235 230 227 230 234 237 242 246 249 250 251 254 254 253 253 254 254 254 254 255 256 256 255 253 254 257 258 258 259 259 260 262 262 263 263 264 265 266 267 267 267 268 269 269 269 269 269 268 267 268 270 272 nan nan nan nan nan nan nan nan nan nan nan nan nan nan nan nan nan nan nan nan nan nan nan nan nan nan nan nan nan nan
230 229 231 232 230 230 230 231 233 237 240 245 247 246 245 247 248 249 251 251 252 253 254 256 257 256 255 255 257 258 258 259 258 259 259 260 261 262 262 263 264 265 265 266 266 266 268 268 268 268 268 268 nan nan nan nan nan nan nan nan nan nan nan nan nan nan nan nan nan nan nan nan nan nan nan nan nan nan nan nan nan nan nan nan nan
234 232 230 230 228 228 230 232 232 234 237 239 240 241 241 241 244 245 248 249 249 250 252 255 257 255 253 253 254 257 258 259 258 258 258 259 259 259 260 261 261 262 264 265 265 265 266 267 nan nan nan nan nan nan nan nan nan nan nan nan nan nan nan nan nan nan nan nan nan nan nan nan nan nan nan nan nan nan nan nan nan nan nan nan nan
232 233 231 230 229 228 231 233 234 234 236 239 241 240 241 243 243 243 244 245 244 245 247 249 252 256 257 257 257 258 258 258 258 257 257 258 258 258 259 259 260 260 260 nan nan nan nan nan nan nan nan nan nan nan nan nan nan nan nan nan nan nan nan nan nan nan nan nan nan nan nan nan nan nan nan nan nan nan nan nan nan nan nan nan nan
230 232 nan 231 229 230 231 232 233 233 235 235 238 241 243 242 241 241 242 245 247 246 245 245 248 252 256 258 258 258 258 257 257 257 257 257 258 259 259 nan nan nan nan nan nan nan nan nan nan nan nan nan nan nan nan nan nan nan nan nan nan nan nan nan nan nan nan nan nan nan nan nan nan nan nan nan nan nan nan nan nan nan nan nan nan
nan nan nan 229 228 230 232 233 234 235 235 237 239 239 240 243 244 242 242 245 248 249 249 249 248 249 252 255 256 257 257 256 256 256 257 257 nan nan nan nan nan nan nan nan nan nan nan nan nan nan nan nan nan nan nan nan nan nan nan nan nan nan nan nan nan nan nan nan nan nan nan nan nan nan nan nan nan nan nan nan nan nan nan nan nan
226 229 230 226 nan 227 231 233 234 234 235 236 239 241 243 244 243 244 244 245 247 249 251 253 253 253 254 255 256 258 258 257 258 nan nan nan nan nan nan nan nan nan nan nan nan nan nan nan nan nan nan nan nan nan nan nan nan nan nan nan nan nan nan nan nan nan nan nan nan nan nan nan nan nan nan nan nan nan nan nan nan nan nan nan nan
226 nan 227 226 224 nan 228 232 235 236 236 237 239 241 243 246 247 248 246 247 247 248 250 251 253 254 256 258 258 259 nan nan nan nan nan nan nan nan nan nan nan nan nan nan nan nan nan nan nan nan nan nan nan nan nan nan nan nan nan nan nan nan nan nan nan nan nan nan nan nan nan nan nan nan nan nan nan nan nan nan nan nan nan nan nan
225 225 226 227 227 227 227 228 232 235 235 236 237 239 241 242 244 245 246 247 248 249 251 252 nan nan nan nan nan nan nan nan nan nan nan nan nan nan nan nan nan nan nan nan nan nan nan nan nan nan nan nan nan nan nan nan nan nan nan nan nan nan nan nan nan nan nan nan nan nan nan nan nan nan nan nan nan nan nan nan nan nan nan nan nan